Startpagina
METAR-TAF:

METAR-TAF

Vliegvelden :

Sun City, Zuid-Afrika

breedte: 25-20-01S, lengte: 027-10-24E, hoogte: 1040 m

Actueel weer

Dit bericht is 1 uur en het 14 minuten geleden gemaakt, om 08:00 UTC
Wind 1 kt uit het zuidzuidwesten
Temperatuur 17°C
Vochtigheid 15%
Druk 1023 hPa

METAR: FAPN 250800Z AUTO 21001KT //// // ////// 17/M10 Q1023

Tijdstip: 11:14 (09:14 UTC)


TAF: ontbreekt

Waarnemingen en weersverwachtingen van meer dan 4000 vliegvelden (METAR en TAF).

De beschikbare stations zijn de gele en rode punten op de kaart.

Ga met uw muis naar het station om de naam te zien.

Klik dan om waarnemingen en weersverwachtingen te zien.

kaart wijzigen: klik op de groene knoppen met een zwart kruis om in te zoomen, op de groene knop met een streepje om uit te zoomen of op de groene pijlen voor aangrenzende kaarten.


METAR-TAF: